[[{"header":{"parameterUnit":"m.s-1","parameterCategory":1,"la1":30.2991,"la2":30.254,"lo1":-89.0895,"lo2":-89.0444,"dy":0.0017,"dx":0.0017,"nx":28,"ny":28,"refTime":"2025-07-12T03:00:00:Z","depth":0,"parameterNumber":2,"parameterNumberName":"U-component_of_WINDS"},"data":[0,0,0,0,0,0,0,0,0,0,0,0,0,0,0,0,0,0,0,0,0,0,0,0,0,0,0,0,0,0,0,0,0,0,0,0,0,0,0,0,0,0,0,0,0,0,0,0,0,0,0,0,0,0,0,0,0,0,3.1288,3.129,0,3.1415,3.1416,3.1418,3.1361,3.1358,3.1355,3.1352,3.1484,3.149,3.1497,0,0,0,0,0,0,0,0,0,0,0,0,0,3.0998,3.1004,3.1288,3.129,3.1291,3.1415,3.1416,3.1418,3.1361,3.1358,3.1354,3.135,3.1482,3.149,3.1497,0,0,0,0,0,0,0,0,0,0,0,0,0,3.1125,3.1006,3.1288,3.1278,3.1278,3.1414,3.1416,3.1419,3.1362,3.1358,3.1353,3.1348,3.1479,3.1489,3.1498,3.1653,0,0,3.1528,3.1532,0,0,0,0,0,0,0,0,3.1117,3.1135,3.1278,3.1279,3.1279,3.1367,3.1363,3.1497,3.1363,3.133,3.1352,3.1346,3.1449,3.1461,3.1495,3.1659,3.1664,3.1529,3.1535,3.1539,3.1542,0,0,0,0,0,0,0,3.1109,3.113,3.1338,3.128,3.1281,3.1267,3.128,3.1388,3.1415,3.1333,3.1329,3.1345,3.1449,3.1486,3.1498,3.1666,3.1529,3.1537,3.1543,3.1547,3.1961,3.1966,0,0,0,0,0,0,3.11,3.1123,3.1334,3.1342,3.1185,3.1276,3.1291,3.1344,3.1413,3.1419,3.1349,3.1342,3.1472,3.1487,3.1502,3.1686,3.1539,3.1548,3.1553,3.1956,3.1962,3.1968,0,0,0,0,0,0,3.1094,3.1119,3.1329,3.1231,3.1257,3.1286,3.1347,3.1349,3.1386,3.1425,3.143,3.1382,3.1469,3.1489,3.1615,3.169,3.1552,3.1561,3.195,3.1958,3.1965,3.2056,0,0,0,0,0,0,3.1086,3.1118,3.1176,3.1233,3.1262,3.144,3.1351,3.1355,3.1403,3.1395,3.1458,3.1464,3.1467,3.1601,3.1625,3.1701,3.1569,3.1943,3.1953,3.1962,3.2047,3.2066,3.2083,0,0,0,0,0,3.1076,3.1198,3.118,3.1206,3.1336,3.1444,3.1461,3.1461,3.1409,3.1468,3.1493,3.1462,3.1678,3.1614,3.1641,3.1721,3.1938,3.195,3.1962,3.2038,3.2062,3.2082,0,0,0,0,0,0,3.1151,3.1205,3.1186,3.133,3.1383,3.1434,3.1509,3.1487,3.1556,3.1546,3.1544,3.1559,3.1689,3.1718,3.1646,3.1873,3.18,3.1818,3.185,3.1873,3.189,3.1881,3.1577,0,0,0,0,0,3.1184,3.1266,3.131,3.1433,3.146,3.148,3.1527,3.1522,3.1578,3.16,3.1634,3.1689,3.1769,3.1823,3.1899,3.205,3.2063,3.2118,3.2136,3.2151,3.2166,3.2247,3.2272,3.2006,3.2006,3.2006,0,0,3.1254,3.1294,3.1346,3.1449,3.1489,3.1574,3.15,3.1594,3.1657,3.1615,3.1735,3.1762,3.1824,3.1963,3.2026,3.1991,3.2242,3.2166,3.2177,3.2185,3.2262,3.2287,3.2309,3.2014,3.2013,3.2011,0,0,3.1424,3.1463,3.1569,3.161,3.1672,3.1684,3.1709,3.1765,3.178,3.1901,3.1871,3.1946,3.2085,3.2129,3.217,3.2355,3.2329,3.238,3.2475,3.2554,3.2575,3.2593,3.2658,3.2682,3.2395,3.2395,3.2396,0,3.1504,3.163,3.1627,3.1722,3.1768,3.1732,3.1839,3.188,3.1964,3.1996,3.1955,3.2127,3.2166,3.2314,3.2359,3.2394,3.2422,3.2373,3.2572,3.259,3.2608,3.267,3.2694,3.2401,3.2401,3.24,3.2399,0,3.1724,3.1813,3.1891,3.1971,3.2025,3.2127,3.2138,3.2194,3.2184,3.22,3.2323,3.2368,3.2452,3.2487,3.2479,3.2634,3.261,3.2571,3.2498,3.2639,3.2697,3.2721,3.241,3.2407,3.2406,3.2404,0,0,3.1947,3.2022,3.2051,3.2086,3.215,3.2218,3.2317,3.2398,3.2445,3.2504,3.2587,3.2704,3.2667,3.2713,3.271,3.2779,3.2921,3.2731,3.2732,3.2764,3.3094,3.3122,3.315,3.2904,3.2908,3.2912,3.3088,0,3.2122,3.2294,3.2293,3.2452,3.2533,3.2499,3.2585,3.2634,3.2652,3.2723,3.2743,3.2826,3.2772,3.2799,3.2866,3.289,3.2988,3.2877,3.2981,3.2985,3.2966,3.3181,3.3212,3.3376,3.3111,3.3115,3.3118,0,3.2349,3.2413,3.258,3.2631,3.2665,3.2742,3.2815,3.2884,3.2938,3.2946,3.2996,3.2982,3.3082,3.3006,3.3144,3.3069,3.3111,3.3129,3.3136,3.3145,3.306,3.3196,3.3429,3.3453,3.3154,3.3151,3.3148,0,3.2493,3.2622,3.2738,3.2769,3.2831,3.2886,3.2915,3.2964,3.3012,3.3076,3.3107,3.3182,3.3223,3.3282,3.3288,3.3232,3.3427,3.3351,3.3436,3.3436,3.3479,3.3476,3.3721,3.3507,3.3507,3.3506,3.3506,0,3.2688,3.2792,3.2803,3.2875,3.2989,3.2986,3.31,3.3124,3.3168,3.3243,3.3219,3.329,3.3294,3.3367,3.3373,3.3486,3.3505,3.3514,3.3514,3.3516,3.3515,3.3544,3.3532,3.3513,3.3511,3.351,3.3509,0,3.2869,3.2881,3.3005,3.3053,3.3067,3.315,3.3191,3.3259,3.3273,3.3369,3.3391,3.3415,3.35,3.3511,3.3611,3.3614,3.375,3.3738,3.3731,3.3729,3.3813,3.3805,3.4085,3.4121,3.3884,3.3886,3.3888,0,3.2993,3.3071,3.3127,3.3175,3.3206,3.3284,3.3332,3.3332,3.3383,3.345,3.351,3.3592,3.3657,3.3794,3.3821,3.3896,3.3886,3.3979,3.3898,3.3896,3.3887,3.3881,3.3889,3.3995,3.3998,3.4,3.4001,0,3.3211,3.3212,3.3282,3.3354,3.3411,3.3468,3.3522,3.3563,3.3569,3.3628,3.3713,3.3764,3.3864,3.3946,3.402,3.405,3.4027,3.4027,3.405,3.4053,3.4045,3.4049,3.3774,3.402,3.4018,3.4017,3.4016,3.4015,3.3366,3.3434,3.3483,3.3561,3.36,3.365,3.3716,3.3738,3.3809,3.389,3.3885,3.3979,3.403,3.4127,3.4162,3.4236,3.4205,3.424,3.4248,3.4257,3.4264,3.4033,3.4249,3.4249,3.4248,3.4248,3.4248,0,3.3582,3.3611,3.3683,3.3757,3.3819,3.379,3.3847,3.39,3.3983,3.4032,3.4096,3.4193,3.4272,3.4303,3.438,3.4433,3.4424,3.4453,3.4449,3.4456,3.4288,3.4259,3.4458,3.4458,3.4458,3.4458,3.4458,3.4458,3.3701,3.3813,3.382,3.3951,3.398,3.4071,3.4105,3.4151,3.419,3.4299,3.4364,3.4383,3.4425,3.4504,3.4574,3.4581,3.4611,3.4644,3.4647,3.4489,3.4468,3.4448,3.4421,3.4651,3.4651,3.4808,3.481,3.4811]},{"header":{"parameterUnit":"m.s-1","parameterCategory":1,"la1":30.2991,"la2":30.254,"lo1":-89.0895,"lo2":-89.0444,"dy":0.0017,"dx":0.0017,"nx":28,"ny":28,"refTime":"2025-07-12T03:00:00:Z","depth":0,"parameterNumber":3,"parameterNumberName":"V-component_of_WINDS"},"data":[0,0,0,0,0,0,0,0,0,0,0,0,0,0,0,0,0,0,0,0,0,0,0,0,0,0,0,0,0,0,0,0,0,0,0,0,0,0,0,0,0,0,0,0,0,0,0,0,0,0,0,0,0,0,0,0,0,0,-0.4693,-0.4694,0,-0.4739,-0.4739,-0.474,-0.4779,-0.478,-0.478,-0.478,-0.4827,-0.4828,-0.4828,0,0,0,0,0,0,0,0,0,0,0,0,0,-0.4641,-0.4641,-0.4693,-0.4694,-0.4694,-0.4739,-0.4739,-0.474,-0.4779,-0.478,-0.478,-0.4781,-0.4827,-0.4827,-0.4828,0,0,0,0,0,0,0,0,0,0,0,0,0,-0.4672,-0.4642,-0.4693,-0.4719,-0.4722,-0.4738,-0.4739,-0.474,-0.4779,-0.478,-0.478,-0.4781,-0.4826,-0.4827,-0.4829,-0.4823,0,0,-0.4832,-0.4833,0,0,0,0,0,0,0,0,-0.4671,-0.4674,-0.4715,-0.4717,-0.4721,-0.4754,-0.4738,-0.4768,-0.4779,-0.4757,-0.478,-0.4781,-0.4802,-0.4805,-0.4812,-0.4825,-0.4827,-0.4832,-0.4833,-0.4834,-0.4834,0,0,0,0,0,0,0,-0.4668,-0.4673,-0.4711,-0.4715,-0.4719,-0.4729,-0.4734,-0.4744,-0.4775,-0.4759,-0.4762,-0.4767,-0.4804,-0.4811,-0.4814,-0.4827,-0.4832,-0.4833,-0.4834,-0.4835,-0.4838,-0.4837,0,0,0,0,0,0,-0.4662,-0.467,-0.471,-0.4712,-0.4697,-0.4729,-0.4735,-0.4742,-0.4775,-0.4781,-0.4766,-0.4769,-0.4809,-0.4812,-0.4815,-0.4811,-0.4834,-0.4835,-0.4836,-0.4839,-0.4838,-0.4837,0,0,0,0,0,0,-0.4661,-0.4665,-0.4708,-0.4692,-0.4698,-0.4729,-0.4737,-0.4743,-0.475,-0.4781,-0.4787,-0.4768,-0.4809,-0.4814,-0.4821,-0.4813,-0.4835,-0.4837,-0.4839,-0.4838,-0.4837,-0.4801,0,0,0,0,0,0,-0.4659,-0.4664,-0.4662,-0.4692,-0.4699,-0.4712,-0.4737,-0.4743,-0.4752,-0.4756,-0.4784,-0.4789,-0.481,-0.4819,-0.4822,-0.4815,-0.4837,-0.484,-0.4839,-0.4838,-0.4803,-0.4798,-0.4795,0,0,0,0,0,-0.4657,-0.465,-0.4662,-0.4667,-0.4697,-0.4711,-0.4716,-0.474,-0.4752,-0.475,-0.4769,-0.4788,-0.4813,-0.4819,-0.4823,-0.4816,-0.4841,-0.4839,-0.4838,-0.4804,-0.4799,-0.4795,0,0,0,0,0,0,-0.4618,-0.4654,-0.4668,-0.467,-0.4688,-0.4718,-0.4716,-0.4734,-0.4748,-0.475,-0.478,-0.4786,-0.479,-0.4804,-0.481,-0.4812,-0.483,-0.4829,-0.4803,-0.4798,-0.4794,-0.479,-0.4838,0,0,0,0,0,-0.461,-0.4619,-0.465,-0.4649,-0.4657,-0.4685,-0.4692,-0.471,-0.4729,-0.4736,-0.4756,-0.4774,-0.4786,-0.4793,-0.4806,-0.4805,-0.4812,-0.4803,-0.4799,-0.4796,-0.4794,-0.4795,-0.4791,-0.4832,-0.4832,-0.4832,0,0,-0.4593,-0.4614,-0.4617,-0.4642,-0.4657,-0.4665,-0.4691,-0.4698,-0.4705,-0.4737,-0.4745,-0.476,-0.4782,-0.4785,-0.4788,-0.4797,-0.4785,-0.4794,-0.4791,-0.4791,-0.4793,-0.4789,-0.4786,-0.4831,-0.4831,-0.4832,0,0,-0.4566,-0.4583,-0.4584,-0.4599,-0.4622,-0.4641,-0.4641,-0.4669,-0.4681,-0.4689,-0.4714,-0.4722,-0.4742,-0.4757,-0.4767,-0.4746,-0.4764,-0.475,-0.4729,-0.4729,-0.4726,-0.4723,-0.4716,-0.4713,-0.4748,-0.4748,-0.4748,0,-0.4542,-0.4555,-0.4582,-0.4588,-0.4598,-0.4629,-0.463,-0.4643,-0.4669,-0.4675,-0.4686,-0.4712,-0.4728,-0.4735,-0.473,-0.4738,-0.4739,-0.4746,-0.4725,-0.4722,-0.472,-0.4713,-0.471,-0.4746,-0.4747,-0.4747,-0.4747,0,-0.4524,-0.4533,-0.4531,-0.4555,-0.4565,-0.4569,-0.4597,-0.4604,-0.4621,-0.4639,-0.4647,-0.4668,-0.4686,-0.4689,-0.4706,-0.4699,-0.4704,-0.4719,-0.4737,-0.4714,-0.4707,-0.4705,-0.4744,-0.4744,-0.4745,-0.4745,0,0,-0.4473,-0.4513,-0.4511,-0.4523,-0.4551,-0.4559,-0.4564,-0.4581,-0.4586,-0.4604,-0.4609,-0.4626,-0.464,-0.4651,-0.467,-0.4671,-0.4653,-0.4686,-0.4687,-0.4678,-0.4646,-0.4634,-0.463,-0.4665,-0.4665,-0.4664,-0.4644,0,-0.445,-0.446,-0.4485,-0.4489,-0.4497,-0.4527,-0.4531,-0.4549,-0.4566,-0.4576,-0.4596,-0.4607,-0.4625,-0.4632,-0.4634,-0.4654,-0.4646,-0.4656,-0.467,-0.467,-0.4662,-0.4627,-0.4614,-0.4594,-0.4642,-0.4642,-0.4641,0,-0.4424,-0.4439,-0.4443,-0.4471,-0.4476,-0.4479,-0.4498,-0.4507,-0.4528,-0.4541,-0.4554,-0.4574,-0.4582,-0.4599,-0.461,-0.4616,-0.4623,-0.4634,-0.4634,-0.4635,-0.4653,-0.4627,-0.4588,-0.4584,-0.4638,-0.4638,-0.4638,0,-0.4385,-0.4407,-0.4412,-0.4421,-0.4454,-0.4456,-0.447,-0.4492,-0.4501,-0.4517,-0.4523,-0.454,-0.4549,-0.4562,-0.4587,-0.4597,-0.4595,-0.4614,-0.4605,-0.4604,-0.4602,-0.4602,-0.4563,-0.4608,-0.4608,-0.4608,-0.4608,0,-0.4356,-0.4357,-0.4395,-0.4398,-0.4401,-0.443,-0.4431,-0.4448,-0.4467,-0.4474,-0.4501,-0.4507,-0.454,-0.455,-0.457,-0.4576,-0.458,-0.459,-0.4595,-0.4587,-0.4586,-0.4592,-0.4593,-0.4608,-0.4608,-0.4608,-0.4608,0,-0.4312,-0.4338,-0.4346,-0.4377,-0.4385,-0.4385,-0.4411,-0.4416,-0.4435,-0.4444,-0.4447,-0.4478,-0.4491,-0.4517,-0.4538,-0.4551,-0.4552,-0.4562,-0.4545,-0.4548,-0.4537,-0.4538,-0.45,-0.4496,-0.4545,-0.4544,-0.4544,0,-0.4291,-0.4293,-0.4324,-0.4331,-0.4344,-0.4354,-0.4364,-0.4393,-0.4402,-0.4426,-0.4428,-0.4443,-0.4457,-0.4477,-0.4501,-0.4517,-0.4526,-0.4512,-0.4529,-0.4521,-0.4525,-0.4524,-0.4525,-0.4508,-0.4507,-0.4507,-0.4506,0,-0.4252,-0.4265,-0.4277,-0.4294,-0.4305,-0.432,-0.4336,-0.434,-0.4373,-0.4382,-0.4396,-0.4406,-0.4428,-0.4443,-0.4462,-0.4477,-0.4497,-0.4501,-0.45,-0.4491,-0.4481,-0.4486,-0.4534,-0.4501,-0.4502,-0.4502,-0.4503,-0.4503,-0.4218,-0.4221,-0.4244,-0.4257,-0.4272,-0.4287,-0.4293,-0.4313,-0.4325,-0.4345,-0.4362,-0.4374,-0.4396,-0.4425,-0.4438,-0.4448,-0.4458,-0.4456,-0.4456,-0.4455,-0.4451,-0.448,-0.4452,-0.4453,-0.4453,-0.4453,-0.4453,0,-0.4179,-0.4195,-0.4207,-0.423,-0.424,-0.4259,-0.4278,-0.4285,-0.4296,-0.4315,-0.4328,-0.4344,-0.4359,-0.4385,-0.4402,-0.4405,-0.4415,-0.4409,-0.4408,-0.4411,-0.4442,-0.4441,-0.4401,-0.4401,-0.4401,-0.4401,-0.4401,-0.4401,-0.416,-0.4166,-0.4181,-0.4195,-0.4212,-0.4224,-0.4233,-0.4247,-0.4263,-0.4279,-0.4292,-0.4309,-0.433,-0.4349,-0.4364,-0.4371,-0.4376,-0.4367,-0.4377,-0.4404,-0.4409,-0.4414,-0.4413,-0.4368,-0.4368,-0.4345,-0.4345,-0.4345]}]]